Nome, AK

6:13 PM AKDT on September 25, 2017 (GMT -0800)
Nome

Weather History for PAOM - December, 2012

Change the Weather History Date:

Sunday, December 2, 2012

  Actual Average Record
Temperature  
Mean Temperature 7 °F 12 °F  
Max Temperature 16 °F 19 °F 38 °F (2007)
Min Temperature -2 °F 6 °F -30 °F (1916)
Degree Days  
Heating Degree Days 58 53  
Month to date heating degree days 112 105  
Since 1 July heating degree days 4332 4198  
Cooling Degree Days 0 0  
Month to date cooling degree days 0 0  
Year to date cooling degree days 0 3  
Moisture  
Dew Point -2 °F    
Average Humidity 0    
Maximum Humidity 0    
Minimum Humidity 0    
Precipitation  
Precipitation 0.00 in 0.04 in 0.24 in (2013)
Month to date precipitation 0.01 0.07  
Year to date precipitation 18.14 15.80  
Snow  
Snow 0.00 in 0.40 in 3.70 in (2013)
Month to date snowfall 0.2 0.8  
Since 1 July snowfall 2.8 18.1  
Snow Depth T in    
Sea Level Pressure  
Sea Level Pressure 30.12 in    
Wind  
Wind Speed 5 mph (NNW)    
Max Wind Speed 21 mph    
Max Gust Speed 25 mph    
Visibility 10 miles    
Events      
T = Trace of Precipitation, MM = Missing Value Source: NWS Daily Summary

Daily Weather History Graph

Daily Weather History Graph

Search for Another Location

Airport or City:

Trip Planner

Search our weather history database for the weather conditions in past years. The results will help you decide how hot, cold, wet, or windy it might be!

Date:

Astronomy

Dec. 02, 2012 Rise Set
Actual Time 11:29 AM AKST 4:12 PM AKST
Civil Twilight 10:15 AM AKST 5:26 PM AKST
Nautical Twilight 9:08 AM AKST 6:34 PM AKST
Astronomical Twilight 8:08 AM AKST 7:33 PM AKST
Moon 9:08 PM AKST (12/2) 1:36 PM AKST (12/2)
Length of Visible Light 7h 10m
Length of Day
4h 42m
Waning Gibbous, 84% of the Moon is Illuminated
Dec 2
Waning Gibbous
Dec 6
Last Quarter
Dec 12
New
Dec 19
First Quarter
Dec 28
Full

Hourly Weather History & Observations

Time (AKST) Temp. Windchill Dew Point Humidity Pressure Visibility Wind Dir Wind Speed Gust Speed Precip Events Conditions
12:53 AM 3.9 °F -3.4 °F -0.0 °F 84% 30.01 in 10.0 mi North 3.5 mph - N/A   Partly Cloudy
1:53 AM 1.9 °F - -2.9 °F 80% 30.02 in 10.0 mi Calm Calm - N/A   Partly Cloudy
3:53 AM 7.0 °F -1.7 °F -2.0 °F 67% 30.04 in 10.0 mi Variable 4.6 mph - N/A   Scattered Clouds
4:53 AM 8.1 °F -3.2 °F -2.0 °F 64% 30.05 in 10.0 mi NW 6.9 mph - N/A   Scattered Clouds
5:53 AM 6.1 °F - -2.9 °F 67% 30.06 in 10.0 mi Calm Calm - N/A   Scattered Clouds
6:53 AM 8.1 °F - -4.0 °F 58% 30.07 in 10.0 mi Calm Calm - N/A   Scattered Clouds
7:53 AM 10.0 °F 0.4 °F -5.1 °F 51% 30.08 in 10.0 mi WNW 5.8 mph - N/A   Scattered Clouds
8:53 AM 12.9 °F -0.9 °F -2.9 °F 49% 30.09 in 10.0 mi North 11.5 mph - N/A   Clear
9:53 AM 12.0 °F -2.0 °F -0.0 °F 59% 30.09 in 10.0 mi North 11.5 mph - N/A   Clear
10:53 AM 12.0 °F 4.1 °F -0.0 °F 59% 30.10 in 10.0 mi NNW 4.6 mph - N/A   Clear
11:53 AM 5.0 °F -4.1 °F -4.0 °F 66% 30.13 in 10.0 mi NNW 4.6 mph - N/A   Clear
12:53 PM 6.1 °F - -2.9 °F 67% 30.13 in 10.0 mi Calm Calm - N/A   Clear
1:53 PM 10.9 °F - -0.9 °F 59% 30.14 in 10.0 mi Calm Calm - N/A   Clear
2:53 PM 15.1 °F 6.4 °F 1.9 °F 56% 30.13 in 10.0 mi NW 5.8 mph - N/A   Clear
3:53 PM 15.1 °F 6.4 °F 1.9 °F 56% 30.14 in 10.0 mi West 5.8 mph - N/A   Clear
4:53 PM 12.0 °F 0.5 °F 1.0 °F 61% 30.15 in 10.0 mi West 8.1 mph - N/A   Scattered Clouds
5:53 PM 12.0 °F -2.7 °F -0.9 °F 56% 30.17 in 10.0 mi North 12.7 mph - N/A   Scattered Clouds
6:53 PM 9.0 °F -4.2 °F -2.0 °F 61% 30.15 in 10.0 mi NNW 9.2 mph - N/A   Partly Cloudy
7:53 PM 5.0 °F -6.9 °F -2.0 °F 73% 30.17 in 10.0 mi East 6.9 mph - N/A   Partly Cloudy
8:53 PM 3.9 °F - -4.0 °F 70% 30.19 in 10.0 mi Calm Calm - N/A   Partly Cloudy
9:53 PM 1.9 °F - -5.1 °F 72% 30.22 in 10.0 mi Calm Calm - N/A   Partly Cloudy
10:53 PM 1.0 °F - -5.1 °F 75% 30.23 in 10.0 mi Calm Calm - N/A   Clear
11:53 PM 1.9 °F -12.9 °F -5.1 °F 72% 30.25 in 10.0 mi NNW 9.2 mph - N/A   Clear